Home > Weather > Hopkinsville > Past weeks

Flag for USA Weather for the Past 2 Weeks in Hopkinsville, Kentucky, USA

Now
58 °F

Sunny.


Feels Like: 58 °F
Forecast: 57 / 70 °F
Wind: 3 mph from Northwest

Location: Fort Campbell U. S. Army Airfield

Current Time: May 2, 2016 at 6:14:30 AM

Latest Report: May 2, 2016 at 5:58 AM


Visibility: 10 mi

Pressure: 30.01 "Hg

Humidity: 81%

Dew Point: 52 °F

Location of HopkinsvilleLocation

Historic Weather in Hopkinsville — Graph

°F

Hopkinsville Temperature Yesterday

Maximum temperature yesterday: 80 °F (at 1:58 PM)
Minimum temperature yesterday: 63 °F (at 4:03 AM)
Average temperature yesterday: 69 °F

High & Low Weather Summary for the Past Weeks

 TemperatureHumidityPressure
High84 °F (Apr 26, 3:58 PM)100% (Apr 21, 1:04 PM)30.37 "Hg (Apr 21, 1:04 PM)
Low47 °F (Apr 24, 5:58 AM)26% (Apr 18, 3:58 PM)29.67 "Hg (Apr 27, 4:58 PM)
Average67 °F73%29.98 "Hg
* Reported Apr 17 4:58 AM — May 2 4:58 AM, Hopkinsville, Weather by CustomWeather, © 2016

Note: Actual official high and low records may vary slightly from our data, if they occured in-between our weather recording intervals... More about our weather records

Advertising

Hopkinsville Weather History for the Previous 24 Hours

Scroll right to see more
 ConditionsComfort  
Time TempWeatherWind HumidityBarometerVisibility
4:58 AM
Mon, May 2
59 °FMostly cloudy.8 mph77%29.99 "Hg10 mi
3:58 AM60 °FOvercast.5 mph79%30.00 "Hg10 mi
2:58 AM62 °FOvercast.7 mph78%29.98 "Hg10 mi
2:04 AM66 °FPassing clouds.7 mph94%29.95 "Hg10 mi
12:58 AM65 °FPassing clouds.5 mph96%29.94 "Hg10 mi
11:58 PM
Sun, May 1
64 °FClear.6 mph99%29.95 "Hg10 mi
10:58 PM65 °FClear.7 mph98%29.95 "Hg10 mi
9:58 PM68 °FClear.7 mph91%29.93 "Hg10 mi
8:58 PM69 °FClear.5 mph88%29.92 "Hg10 mi
7:58 PM71 °FClear.5 mph83%29.92 "Hg10 mi
6:58 PM74 °FSunny.5 mph71%29.90 "Hg10 mi
5:58 PM76 °FSunny.8 mph63%29.90 "Hg10 mi
4:58 PM76 °FSunny.8 mph58%29.91 "Hg10 mi
3:58 PM72 °FThundershowers. Passing clouds.13 mph79%29.92 "Hg10 mi
2:58 PM76 °FSunny.7 mph72%29.92 "Hg10 mi
1:58 PM80 °FBroken clouds.9 mph62%29.90 "Hg10 mi
12:58 PM78 °FPassing clouds.8 mph67%29.92 "Hg10 mi
11:58 AM75 °FPassing clouds.6 mph75%29.93 "Hg10 mi
10:58 AM72 °FOvercast.7 mph85%29.94 "Hg10 mi
9:58 AM67 °FMostly cloudy.8 mph100%29.93 "Hg10 mi
8:58 AM66 °FLow clouds.8 mph100%29.94 "Hg9 mi
7:58 AM65 °FFog.2 mph100%29.93 "Hg4 mi
7:04 AM64 °FFog.6 mph100%29.93 "Hg4 mi
6:58 AM64 °FFog.6 mph100%29.93 "Hg5 mi
6:03 AM63 °FFog.No wind100%29.91 "Hg3 mi
Weather by CustomWeather, © 2016

See weather overviewHow to use our weather pages